Location: Beetenbrück
(52.8113°N, 9.5946°E)
Time: 21:29:57
(UTC+00:00)

NOSS 2-3 (D) - Pass Details

Date: 14 April 2026
Orbit: 497 x 1701 km, 63.3° (Epoch: 24 April)

Event Time Altitude Azimuth Distance (km) Brightness Sun altitude
Rises 18:56:31 0° 312° (NW) 2,938 8.8 -6.1°
Reaches altitude 10° 18:58:34 10° 310° (NW) 2,138 7.9 -6.4°
Maximum altitude 19:03:23 70° 227° (SW) 881 4.4 -7.0°
Drops below altitude 10° 19:09:51 10° 146° (SE) 2,838 6.4 -7.9°
Enters shadow 19:11:09 - 145° (SE) 3,330 6.7 -8.1°
